{"data":{"norad_id":45080,"epoch":"2026-05-25T00:50:05.709984Z","epoch_age_seconds":71960,"freshness":"FRESH","line1":"1 45080U 20006AN  26145.03478831  .00042545  00000+0  11991-2 0  9999","line2":"2 45080  53.1587 261.7843 0003809 279.4184  80.6389 15.36031161348583","mean_motion":15.36031161,"eccentricity":0.0003809,"inclination_deg":53.1587,"raan_deg":261.7843,"arg_perigee_deg":279.4184,"mean_anomaly_deg":80.6389,"bstar":0.0011991,"rev_number":34858,"period_min":93.74809812208,"perigee_km":455.25554579271,"apogee_km":460.46320783256,"semimajor_km":6835.9963768126,"source":"CELESTRAK","updated_at":"2026-05-25T13:38:16.379590Z"}}